[[{"header":{"parameterUnit":"m.s-1","parameterCategory":1,"la1":30.2991,"la2":30.254,"lo1":-89.0895,"lo2":-89.0444,"dy":0.0017,"dx":0.0017,"nx":28,"ny":28,"refTime":"2023-11-16T03:00:00:Z","depth":0,"parameterNumber":2,"parameterNumberName":"U-component_of_WINDS"},"data":[0,0,0,0,0,0,0,0,0,0,0,0,0,0,0,0,0,0,0,0,0,0,0,0,0,0,0,0,0,0,0,0,0,0,0,0,0,0,0,0,0,0,0,0,0,0,0,0,0,0,0,0,0,0,0,0,0,0,-2.1176,-2.1177,0,-2.1268,-2.1269,-2.127,-2.1248,-2.1246,-2.1244,-2.1242,-2.1337,-2.1341,-2.1345,0,0,0,0,0,0,0,0,0,0,0,0,0,-2.098,-2.0983,-2.1176,-2.1177,-2.1178,-2.1268,-2.1269,-2.1271,-2.1248,-2.1246,-2.1244,-2.1241,-2.1336,-2.1341,-2.1346,0,0,0,0,0,0,0,0,0,0,0,0,0,-2.1068,-2.0985,-2.1176,-2.1178,-2.1179,-2.1268,-2.1269,-2.1271,-2.1248,-2.1246,-2.1243,-2.124,-2.1334,-2.134,-2.1347,-2.1439,0,0,-2.1366,-2.1368,0,0,0,0,0,0,0,0,-2.1063,-2.1075,-2.1176,-2.1178,-2.1179,-2.1244,-2.1235,-2.1327,-2.1249,-2.1222,-2.1242,-2.1239,-2.1308,-2.1317,-2.134,-2.1444,-2.1448,-2.1366,-2.137,-2.1373,-2.1375,0,0,0,0,0,0,0,-2.1057,-2.1071,-2.1212,-2.1178,-2.1179,-2.1174,-2.1183,-2.1252,-2.1279,-2.1224,-2.1223,-2.1234,-2.1309,-2.1334,-2.1342,-2.1449,-2.1366,-2.1372,-2.1376,-2.1378,-2.1635,-2.1638,0,0,0,0,0,0,-2.1049,-2.1066,-2.1209,-2.1215,-2.1113,-2.118,-2.119,-2.1226,-2.1278,-2.1284,-2.1236,-2.1232,-2.1324,-2.1334,-2.1345,-2.1458,-2.1373,-2.1379,-2.1382,-2.1632,-2.1635,-2.1639,0,0,0,0,0,0,-2.1045,-2.1062,-2.1206,-2.114,-2.1158,-2.1186,-2.1226,-2.1229,-2.1254,-2.1287,-2.1292,-2.1257,-2.1323,-2.1336,-2.1416,-2.1461,-2.1382,-2.1387,-2.1628,-2.1633,-2.1637,-2.1685,0,0,0,0,0,0,-2.104,-2.1061,-2.1097,-2.1141,-2.1162,-2.1275,-2.1228,-2.1233,-2.1265,-2.1261,-2.1308,-2.1313,-2.1322,-2.1407,-2.1422,-2.1468,-2.1392,-2.1624,-2.163,-2.1636,-2.1679,-2.169,-2.17,0,0,0,0,0,-2.1033,-2.1106,-2.1099,-2.1116,-2.1207,-2.1278,-2.129,-2.1298,-2.1269,-2.1305,-2.1326,-2.1312,-2.1453,-2.1415,-2.1433,-2.1481,-2.1621,-2.1628,-2.1635,-2.1675,-2.1688,-2.1699,0,0,0,0,0,0,-2.1066,-2.1112,-2.1104,-2.1194,-2.1232,-2.1274,-2.132,-2.1311,-2.1359,-2.1353,-2.1361,-2.1372,-2.1454,-2.1475,-2.1432,-2.1574,-2.1533,-2.1544,-2.1557,-2.157,-2.158,-2.1574,-2.1397,0,0,0,0,0,-2.1084,-2.1138,-2.1175,-2.1251,-2.1271,-2.1292,-2.1323,-2.1326,-2.1366,-2.1382,-2.1409,-2.1449,-2.1502,-2.1537,-2.1588,-2.1681,-2.1692,-2.1723,-2.1734,-2.1742,-2.1751,-2.1804,-2.1818,-2.1661,-2.1661,-2.1661,0,0,-2.1122,-2.1153,-2.1187,-2.1259,-2.1289,-2.1345,-2.1306,-2.1367,-2.1409,-2.1391,-2.1469,-2.149,-2.1535,-2.1622,-2.1662,-2.1643,-2.1797,-2.175,-2.1757,-2.1762,-2.1812,-2.1827,-2.184,-2.1666,-2.1665,-2.1664,0,0,-2.122,-2.1248,-2.1315,-2.1346,-2.1392,-2.1406,-2.1422,-2.1465,-2.1478,-2.1556,-2.1544,-2.1594,-2.1685,-2.1718,-2.1746,-2.1856,-2.1845,-2.1872,-2.1926,-2.1977,-2.1989,-2.2,-2.2041,-2.2055,-2.1881,-2.1881,-2.1881,0,-2.1261,-2.1345,-2.1351,-2.1413,-2.1445,-2.1432,-2.15,-2.1529,-2.1589,-2.1612,-2.1589,-2.1704,-2.1733,-2.1828,-2.1855,-2.1878,-2.1897,-2.1868,-2.1987,-2.1998,-2.2008,-2.2047,-2.2062,-2.1884,-2.1884,-2.1884,-2.1883,0,-2.1394,-2.1453,-2.1501,-2.156,-2.1597,-2.1662,-2.1678,-2.1715,-2.1714,-2.173,-2.1809,-2.1843,-2.1901,-2.1923,-2.1923,-2.2019,-2.2006,-2.1985,-2.1944,-2.2027,-2.2063,-2.2078,-2.1889,-2.1888,-2.1887,-2.1886,0,0,-2.1517,-2.1578,-2.1596,-2.1622,-2.1672,-2.1717,-2.1781,-2.1838,-2.187,-2.1911,-2.1966,-2.2043,-2.2024,-2.2056,-2.2059,-2.2104,-2.219,-2.2077,-2.2078,-2.2098,-2.2299,-2.2316,-2.2333,-2.2182,-2.2185,-2.2187,-2.2296,0,-2.162,-2.1734,-2.1741,-2.1844,-2.1898,-2.1886,-2.1942,-2.1978,-2.1994,-2.2043,-2.2061,-2.2116,-2.2086,-2.2106,-2.2149,-2.217,-2.223,-2.2162,-2.2234,-2.2236,-2.2225,-2.2351,-2.2369,-2.2471,-2.231,-2.2312,-2.2314,0,-2.1756,-2.1803,-2.1911,-2.1953,-2.1976,-2.2026,-2.2079,-2.2125,-2.2166,-2.2175,-2.2211,-2.2207,-2.2273,-2.2229,-2.2321,-2.2274,-2.2303,-2.2318,-2.2322,-2.2331,-2.2281,-2.2365,-2.2503,-2.2519,-2.2336,-2.2334,-2.2333,0,-2.1837,-2.1926,-2.2003,-2.2026,-2.2076,-2.2112,-2.2134,-2.2173,-2.2206,-2.2252,-2.2274,-2.2326,-2.2356,-2.2397,-2.2408,-2.2374,-2.2499,-2.2456,-2.2509,-2.2509,-2.2538,-2.2536,-2.2684,-2.2554,-2.2554,-2.2553,-2.2553,0,-2.1953,-2.202,-2.204,-2.2087,-2.2162,-2.2169,-2.2243,-2.2263,-2.2297,-2.2348,-2.234,-2.2388,-2.2399,-2.2449,-2.2458,-2.2533,-2.2546,-2.2555,-2.2557,-2.2557,-2.2556,-2.2578,-2.2572,-2.2557,-2.2556,-2.2556,-2.2555,0,-2.2057,-2.2072,-2.2155,-2.2196,-2.2208,-2.2262,-2.2296,-2.2342,-2.2357,-2.2422,-2.2437,-2.2461,-2.252,-2.2534,-2.2604,-2.261,-2.2699,-2.2693,-2.2686,-2.2686,-2.274,-2.2735,-2.2908,-2.2932,-2.2784,-2.2786,-2.2787,0,-2.2131,-2.2182,-2.2228,-2.2262,-2.2286,-2.2341,-2.2375,-2.2383,-2.2419,-2.247,-2.251,-2.2567,-2.2614,-2.2709,-2.2732,-2.2786,-2.2782,-2.2839,-2.279,-2.2789,-2.2785,-2.2783,-2.2788,-2.2849,-2.2851,-2.2852,-2.2853,0,-2.226,-2.2266,-2.2315,-2.2368,-2.241,-2.2452,-2.2492,-2.252,-2.2533,-2.2574,-2.2634,-2.2671,-2.2742,-2.28,-2.2854,-2.2877,-2.2868,-2.2868,-2.2883,-2.2885,-2.2879,-2.2884,-2.2713,-2.2864,-2.2863,-2.2862,-2.2862,-2.2861,-2.2353,-2.2398,-2.2438,-2.2494,-2.2525,-2.2563,-2.2608,-2.2628,-2.2678,-2.2738,-2.2739,-2.2805,-2.2844,-2.2915,-2.2942,-2.2993,-2.2976,-2.2998,-2.3004,-2.301,-2.3015,-2.2869,-2.3003,-2.3002,-2.3002,-2.3002,-2.3002,0,-2.2484,-2.2508,-2.256,-2.2616,-2.266,-2.2647,-2.269,-2.2728,-2.2786,-2.2824,-2.287,-2.2939,-2.2995,-2.3023,-2.3078,-2.3114,-2.3111,-2.3128,-2.3127,-2.3133,-2.3027,-2.3009,-2.313,-2.313,-2.313,-2.313,-2.313,-2.313,-2.2557,-2.2634,-2.2644,-2.2735,-2.276,-2.2824,-2.285,-2.2885,-2.2915,-2.2993,-2.3039,-2.3057,-2.309,-2.3148,-2.3199,-2.3206,-2.3227,-2.3247,-2.3252,-2.3153,-2.314,-2.3128,-2.3111,-2.3251,-2.3251,-2.3353,-2.3354,-2.3355]},{"header":{"parameterUnit":"m.s-1","parameterCategory":1,"la1":30.2991,"la2":30.254,"lo1":-89.0895,"lo2":-89.0444,"dy":0.0017,"dx":0.0017,"nx":28,"ny":28,"refTime":"2023-11-16T03:00:00:Z","depth":0,"parameterNumber":3,"parameterNumberName":"V-component_of_WINDS"},"data":[0,0,0,0,0,0,0,0,0,0,0,0,0,0,0,0,0,0,0,0,0,0,0,0,0,0,0,0,0,0,0,0,0,0,0,0,0,0,0,0,0,0,0,0,0,0,0,0,0,0,0,0,0,0,0,0,0,0,-4.0849,-4.0849,0,-4.0893,-4.0893,-4.0894,-4.0848,-4.0847,-4.0845,-4.0843,-4.0884,-4.0887,-4.089,0,0,0,0,0,0,0,0,0,0,0,0,0,-4.0722,-4.0724,-4.0849,-4.0849,-4.085,-4.0893,-4.0893,-4.0894,-4.0849,-4.0846,-4.0844,-4.0842,-4.0883,-4.0887,-4.089,0,0,0,0,0,0,0,0,0,0,0,0,0,-4.0772,-4.0725,-4.0849,-4.0833,-4.0832,-4.0892,-4.0893,-4.0894,-4.0849,-4.0846,-4.0844,-4.0841,-4.0882,-4.0886,-4.089,-4.0968,0,0,-4.0903,-4.0905,0,0,0,0,0,0,0,0,-4.077,-4.0777,-4.0834,-4.0834,-4.0833,-4.0862,-4.0863,-4.0919,-4.085,-4.0842,-4.0843,-4.084,-4.0879,-4.0883,-4.0897,-4.097,-4.0972,-4.0903,-4.0906,-4.0908,-4.0909,0,0,0,0,0,0,0,-4.0766,-4.0775,-4.0866,-4.0835,-4.0834,-4.0822,-4.0826,-4.0874,-4.0875,-4.0843,-4.084,-4.0846,-4.0878,-4.0893,-4.0898,-4.0972,-4.0903,-4.0907,-4.0909,-4.0911,-4.111,-4.1113,0,0,0,0,0,0,-4.0765,-4.0772,-4.0865,-4.0867,-4.0794,-4.0826,-4.0831,-4.0855,-4.0874,-4.0874,-4.0848,-4.0843,-4.0887,-4.0893,-4.0899,-4.0991,-4.0907,-4.0911,-4.0914,-4.1107,-4.1111,-4.1114,0,0,0,0,0,0,-4.0762,-4.0774,-4.0863,-4.0819,-4.0829,-4.0831,-4.0859,-4.0858,-4.0873,-4.0878,-4.0877,-4.0863,-4.0886,-4.0893,-4.0951,-4.0991,-4.0913,-4.0917,-4.1104,-4.1109,-4.1112,-4.1175,0,0,0,0,0,0,-4.0759,-4.0773,-4.0804,-4.082,-4.0832,-4.0916,-4.0862,-4.086,-4.0881,-4.0875,-4.0892,-4.0893,-4.0884,-4.0945,-4.0955,-4.0996,-4.092,-4.11,-4.1106,-4.1111,-4.117,-4.1181,-4.1191,0,0,0,0,0,-4.0755,-4.0819,-4.0806,-4.0817,-4.0871,-4.0918,-4.0925,-4.0915,-4.0884,-4.0914,-4.0917,-4.0892,-4.0986,-4.0952,-4.0963,-4.1005,-4.1098,-4.1104,-4.1111,-4.1165,-4.1179,-4.1191,0,0,0,0,0,0,-4.0806,-4.0821,-4.0806,-4.0878,-4.0897,-4.0911,-4.0948,-4.093,-4.0958,-4.0952,-4.0936,-4.0941,-4.1002,-4.1009,-4.0971,-4.108,-4.1036,-4.1045,-4.1074,-4.1087,-4.1098,-4.1095,-4.0923,0,0,0,0,0,-4.0826,-4.0865,-4.0875,-4.0938,-4.0948,-4.0947,-4.0967,-4.0958,-4.0977,-4.0984,-4.0992,-4.101,-4.1043,-4.1066,-4.1097,-4.117,-4.1173,-4.1204,-4.1215,-4.1224,-4.1232,-4.127,-4.1284,-4.1135,-4.1135,-4.1135,0,0,-4.0867,-4.088,-4.0905,-4.0948,-4.0962,-4.1002,-4.0954,-4.0998,-4.1027,-4.0991,-4.1046,-4.1052,-4.1072,-4.1138,-4.1167,-4.1145,-4.1273,-4.1232,-4.1239,-4.1242,-4.1278,-4.1293,-4.1305,-4.1139,-4.1139,-4.1138,0,0,-4.0962,-4.0977,-4.103,-4.1045,-4.1067,-4.1066,-4.1078,-4.1095,-4.1097,-4.1153,-4.1127,-4.116,-4.1218,-4.1233,-4.1248,-4.1348,-4.1326,-4.1358,-4.1414,-4.1452,-4.1464,-4.1474,-4.151,-4.1523,-4.1366,-4.1366,-4.1366,0,-4.101,-4.107,-4.1059,-4.1105,-4.1124,-4.1095,-4.1148,-4.1162,-4.1193,-4.1206,-4.1181,-4.1253,-4.1264,-4.1333,-4.1358,-4.1371,-4.1384,-4.1357,-4.1464,-4.1474,-4.1483,-4.1517,-4.153,-4.137,-4.137,-4.1369,-4.1369,0,-4.1128,-4.117,-4.121,-4.1242,-4.1265,-4.1314,-4.1309,-4.1334,-4.1322,-4.1323,-4.1379,-4.1391,-4.1424,-4.144,-4.1428,-4.1507,-4.1493,-4.1466,-4.1422,-4.1502,-4.1533,-4.1545,-4.1376,-4.1374,-4.1373,-4.1372,0,0,-4.1258,-4.1282,-4.1297,-4.1311,-4.1333,-4.1364,-4.1411,-4.1444,-4.1466,-4.1487,-4.1526,-4.1575,-4.1551,-4.1568,-4.1558,-4.1591,-4.1669,-4.156,-4.156,-4.158,-4.1756,-4.1776,-4.1791,-4.1654,-4.1657,-4.1659,-4.1754,0,-4.1353,-4.1437,-4.1428,-4.1507,-4.1545,-4.1517,-4.1557,-4.1575,-4.1576,-4.1607,-4.1608,-4.1644,-4.1609,-4.1619,-4.1651,-4.1653,-4.1704,-4.1646,-4.1689,-4.1691,-4.1686,-4.1807,-4.1829,-4.1918,-4.1766,-4.1768,-4.177,0,-4.1477,-4.1504,-4.1587,-4.1603,-4.1618,-4.1656,-4.1685,-4.1715,-4.1733,-4.1732,-4.1751,-4.1735,-4.1781,-4.1735,-4.1798,-4.1758,-4.1775,-4.1779,-4.1782,-4.1786,-4.1735,-4.1814,-4.1946,-4.196,-4.1789,-4.1787,-4.1786,0,-4.1563,-4.162,-4.1677,-4.169,-4.1709,-4.1736,-4.1745,-4.1761,-4.1781,-4.1806,-4.1819,-4.1848,-4.1865,-4.1887,-4.1879,-4.1846,-4.1942,-4.1896,-4.1942,-4.1942,-4.1964,-4.1962,-4.2101,-4.1975,-4.1974,-4.1974,-4.1974,0,-4.1671,-4.1723,-4.1716,-4.1751,-4.1808,-4.1796,-4.1853,-4.1858,-4.1872,-4.1907,-4.1883,-4.1916,-4.1903,-4.1934,-4.1928,-4.198,-4.1987,-4.1987,-4.1984,-4.1989,-4.1989,-4.2,-4.1994,-4.1978,-4.1977,-4.1976,-4.1976,0,-4.1777,-4.1775,-4.1835,-4.1849,-4.1853,-4.1895,-4.1906,-4.1938,-4.1937,-4.1981,-4.1991,-4.199,-4.2026,-4.202,-4.2059,-4.2054,-4.212,-4.211,-4.2114,-4.2112,-4.2158,-4.2153,-4.2308,-4.2327,-4.2189,-4.219,-4.2191,0,-4.1846,-4.1885,-4.1904,-4.1926,-4.1937,-4.1973,-4.1994,-4.1983,-4.2005,-4.2029,-4.2058,-4.2092,-4.2118,-4.2176,-4.2178,-4.2208,-4.2198,-4.225,-4.2203,-4.2206,-4.2199,-4.2197,-4.22,-4.226,-4.2262,-4.2263,-4.2264,0,-4.1969,-4.1966,-4.1997,-4.2029,-4.2054,-4.2078,-4.2099,-4.2118,-4.2109,-4.2135,-4.2172,-4.2192,-4.2233,-4.2266,-4.2294,-4.2301,-4.2281,-4.2279,-4.2291,-4.2296,-4.2297,-4.2297,-4.214,-4.2275,-4.2274,-4.2273,-4.2273,-4.2272,-4.2059,-4.2092,-4.2111,-4.2146,-4.2161,-4.2181,-4.2212,-4.2216,-4.2247,-4.228,-4.2271,-4.2313,-4.2328,-4.2363,-4.2374,-4.2406,-4.2386,-4.2404,-4.2408,-4.2413,-4.2418,-4.2292,-4.2411,-4.241,-4.241,-4.241,-4.2409,0,-4.2181,-4.2191,-4.2224,-4.2255,-4.2282,-4.2261,-4.2283,-4.2308,-4.2345,-4.2362,-4.2389,-4.2431,-4.2463,-4.2467,-4.2498,-4.2522,-4.2513,-4.253,-4.2528,-4.253,-4.2434,-4.2421,-4.2537,-4.2537,-4.2537,-4.2537,-4.2537,-4.2537,-4.2247,-4.2303,-4.2302,-4.2364,-4.2373,-4.2415,-4.2429,-4.2447,-4.2461,-4.2509,-4.2536,-4.2539,-4.2551,-4.2582,-4.261,-4.261,-4.2622,-4.2643,-4.264,-4.255,-4.2537,-4.2525,-4.2512,-4.2646,-4.2646,-4.2733,-4.2734,-4.2735]}]]